[[{"header":{"parameterUnit":"m.s-1","parameterCategory":1,"la1":30.2991,"la2":30.254,"lo1":-89.0895,"lo2":-89.0444,"dy":0.0017,"dx":0.0017,"nx":28,"ny":28,"refTime":"2024-05-01T21:00:00:Z","depth":0,"parameterNumber":2,"parameterNumberName":"U-component_of_WINDS"},"data":[0,0,0,0,0,0,0,0,0,0,0,0,0,0,0,0,0,0,0,0,0,0,0,0,0,0,0,0,0,0,0,0,0,0,0,0,0,0,0,0,0,0,0,0,0,0,0,0,0,0,0,0,0,0,0,0,0,0,-0.6574,-0.6573,0,-0.6493,-0.6492,-0.6491,-0.6447,-0.6447,-0.6447,-0.6446,-0.6364,-0.6361,-0.6359,0,0,0,0,0,0,0,0,0,0,0,0,0,-0.6692,-0.669,-0.6574,-0.6573,-0.6572,-0.6493,-0.6492,-0.6491,-0.6447,-0.6447,-0.6447,-0.6446,-0.6364,-0.6362,-0.6359,0,0,0,0,0,0,0,0,0,0,0,0,0,-0.6629,-0.6689,-0.6574,-0.654,-0.6537,-0.6493,-0.6492,-0.6491,-0.6447,-0.6447,-0.6447,-0.6446,-0.6365,-0.6362,-0.6359,-0.6343,0,0,-0.6349,-0.6348,0,0,0,0,0,0,0,0,-0.6632,-0.6624,-0.6546,-0.6543,-0.6538,-0.648,-0.6503,-0.6441,-0.6447,-0.6481,-0.6446,-0.6446,-0.6402,-0.6396,-0.6381,-0.6339,-0.6335,-0.6349,-0.6347,-0.6346,-0.6345,0,0,0,0,0,0,0,-0.6637,-0.6628,-0.6542,-0.6545,-0.654,-0.653,-0.6521,-0.6491,-0.6444,-0.6478,-0.6475,-0.6466,-0.64,-0.6384,-0.6379,-0.6334,-0.6349,-0.6346,-0.6344,-0.6343,-0.6277,-0.6277,0,0,0,0,0,0,-0.6646,-0.6632,-0.6544,-0.6539,-0.6586,-0.6528,-0.6518,-0.6499,-0.6444,-0.6435,-0.6466,-0.6464,-0.639,-0.6383,-0.6376,-0.6354,-0.6346,-0.6343,-0.6341,-0.6277,-0.6277,-0.6277,0,0,0,0,0,0,-0.6649,-0.6639,-0.6548,-0.6585,-0.6572,-0.6526,-0.6505,-0.6497,-0.6481,-0.6435,-0.6426,-0.6458,-0.639,-0.638,-0.6352,-0.6351,-0.6341,-0.6338,-0.6276,-0.6277,-0.6277,-0.6311,0,0,0,0,0,0,-0.6653,-0.664,-0.6633,-0.6585,-0.657,-0.6525,-0.6505,-0.6496,-0.6476,-0.6473,-0.6425,-0.6417,-0.6389,-0.6357,-0.6349,-0.6346,-0.6336,-0.6276,-0.6277,-0.6277,-0.631,-0.6312,-0.6315,0,0,0,0,0,-0.6657,-0.6646,-0.6633,-0.6623,-0.6561,-0.6525,-0.6516,-0.6483,-0.6476,-0.6469,-0.644,-0.6419,-0.6353,-0.6354,-0.6345,-0.6342,-0.6276,-0.6276,-0.6277,-0.6309,-0.6312,-0.6315,0,0,0,0,0,0,-0.6695,-0.6639,-0.6624,-0.6596,-0.6566,-0.6517,-0.6507,-0.6488,-0.6458,-0.6456,-0.6417,-0.6407,-0.6382,-0.6359,-0.6362,-0.6324,-0.6312,-0.6311,-0.634,-0.6343,-0.6345,-0.6351,-0.6333,0,0,0,0,0,-0.67,-0.6675,-0.6628,-0.6608,-0.6593,-0.6553,-0.6536,-0.6514,-0.648,-0.6467,-0.6435,-0.6403,-0.6376,-0.6358,-0.633,-0.6307,-0.6296,-0.63,-0.6303,-0.6305,-0.6304,-0.6291,-0.6293,-0.6278,-0.6278,-0.6278,0,0,-0.671,-0.6676,-0.6663,-0.6615,-0.6588,-0.6564,-0.6542,-0.6517,-0.6499,-0.6463,-0.6434,-0.641,-0.6372,-0.6347,-0.6334,-0.6327,-0.6306,-0.6305,-0.6307,-0.6305,-0.6292,-0.6293,-0.6295,-0.6278,-0.6278,-0.6278,0,0,-0.6716,-0.6688,-0.6669,-0.6644,-0.6604,-0.6578,-0.6573,-0.6528,-0.6511,-0.6482,-0.6455,-0.6433,-0.6385,-0.636,-0.6341,-0.6341,-0.6321,-0.6333,-0.6345,-0.6333,-0.6335,-0.6335,-0.6336,-0.6336,-0.6332,-0.6332,-0.6332,0,-0.6734,-0.6696,-0.6662,-0.6639,-0.6619,-0.6586,-0.6567,-0.6544,-0.6498,-0.6485,-0.6478,-0.6419,-0.6391,-0.636,-0.636,-0.6346,-0.634,-0.6337,-0.6337,-0.6338,-0.6338,-0.6338,-0.6338,-0.6334,-0.6333,-0.6333,-0.6333,0,-0.672,-0.6694,-0.6684,-0.664,-0.6619,-0.6598,-0.6562,-0.6545,-0.6526,-0.65,-0.6472,-0.6438,-0.6403,-0.6394,-0.6374,-0.6361,-0.6358,-0.6345,-0.6332,-0.6342,-0.6341,-0.6341,-0.6336,-0.6335,-0.6335,-0.6334,0,0,-0.6745,-0.6685,-0.6681,-0.6662,-0.6617,-0.6597,-0.6576,-0.6542,-0.6528,-0.6498,-0.648,-0.6442,-0.643,-0.6408,-0.6385,-0.6375,-0.6379,-0.6363,-0.6362,-0.6368,-0.6363,-0.6373,-0.6374,-0.6366,-0.6366,-0.6366,-0.6366,0,-0.6745,-0.6704,-0.6674,-0.6645,-0.6622,-0.6592,-0.6574,-0.6545,-0.6521,-0.6499,-0.6473,-0.6447,-0.6432,-0.642,-0.6408,-0.6381,-0.6377,-0.638,-0.6349,-0.6348,-0.6359,-0.6373,-0.6383,-0.6385,-0.6366,-0.6366,-0.6366,0,-0.6738,-0.671,-0.6679,-0.6638,-0.6627,-0.6611,-0.6579,-0.6557,-0.6524,-0.6508,-0.6486,-0.6463,-0.644,-0.6431,-0.6399,-0.6402,-0.6388,-0.6373,-0.6372,-0.6367,-0.6357,-0.6369,-0.6385,-0.6386,-0.6365,-0.6365,-0.6365,0,-0.6761,-0.6715,-0.669,-0.6675,-0.6626,-0.6616,-0.6595,-0.6563,-0.6545,-0.6517,-0.6505,-0.6475,-0.6459,-0.6436,-0.6406,-0.6402,-0.6379,-0.6366,-0.6365,-0.6366,-0.636,-0.6361,-0.6375,-0.6352,-0.6352,-0.6352,-0.6352,0,-0.6763,-0.6745,-0.67,-0.6685,-0.6665,-0.6631,-0.6613,-0.659,-0.6561,-0.6542,-0.6515,-0.6497,-0.6459,-0.6438,-0.6414,-0.6393,-0.6385,-0.6372,-0.6366,-0.6374,-0.6376,-0.6364,-0.6363,-0.6352,-0.6352,-0.6352,-0.6352,0,-0.6784,-0.6752,-0.6724,-0.6682,-0.6671,-0.6658,-0.6622,-0.6607,-0.6583,-0.6559,-0.6552,-0.6514,-0.6488,-0.6456,-0.6419,-0.6404,-0.6384,-0.6375,-0.6395,-0.6391,-0.6392,-0.6393,-0.6398,-0.6398,-0.6376,-0.6376,-0.6376,0,-0.6787,-0.6773,-0.6729,-0.6715,-0.6695,-0.6672,-0.6654,-0.6621,-0.6604,-0.6567,-0.6557,-0.6529,-0.6504,-0.6463,-0.6433,-0.6405,-0.6395,-0.6399,-0.6391,-0.64,-0.6396,-0.6397,-0.6396,-0.6401,-0.6402,-0.6402,-0.6402,0,-0.6797,-0.6783,-0.6758,-0.6728,-0.6708,-0.6683,-0.6657,-0.6646,-0.6609,-0.6591,-0.6564,-0.6545,-0.6508,-0.6481,-0.645,-0.6429,-0.641,-0.6406,-0.6404,-0.6412,-0.6424,-0.6418,-0.6401,-0.6405,-0.6405,-0.6405,-0.6405,-0.6404,-0.6809,-0.6795,-0.6763,-0.6737,-0.6714,-0.6691,-0.6675,-0.665,-0.6627,-0.6594,-0.6577,-0.6551,-0.652,-0.6477,-0.6457,-0.6437,-0.643,-0.6427,-0.6427,-0.6426,-0.6429,-0.6428,-0.6431,-0.6431,-0.6431,-0.6431,-0.6431,0,-0.6817,-0.6796,-0.6772,-0.6737,-0.6717,-0.6701,-0.6672,-0.6656,-0.6633,-0.6607,-0.6584,-0.6554,-0.6527,-0.6496,-0.6468,-0.6458,-0.6449,-0.6452,-0.6452,-0.6448,-0.6437,-0.6441,-0.646,-0.646,-0.646,-0.646,-0.646,-0.646,-0.6819,-0.6796,-0.6778,-0.6744,-0.6723,-0.6697,-0.6682,-0.6661,-0.664,-0.6607,-0.6585,-0.6566,-0.6538,-0.6508,-0.6484,-0.6475,-0.6466,-0.6472,-0.6462,-0.6451,-0.6449,-0.6446,-0.645,-0.6471,-0.6471,-0.6474,-0.6475,-0.6475]},{"header":{"parameterUnit":"m.s-1","parameterCategory":1,"la1":30.2991,"la2":30.254,"lo1":-89.0895,"lo2":-89.0444,"dy":0.0017,"dx":0.0017,"nx":28,"ny":28,"refTime":"2024-05-01T21:00:00:Z","depth":0,"parameterNumber":3,"parameterNumberName":"V-component_of_WINDS"},"data":[0,0,0,0,0,0,0,0,0,0,0,0,0,0,0,0,0,0,0,0,0,0,0,0,0,0,0,0,0,0,0,0,0,0,0,0,0,0,0,0,0,0,0,0,0,0,0,0,0,0,0,0,0,0,0,0,0,0,3.0813,3.0813,0,3.0783,3.0782,3.0782,3.0823,3.0825,3.0826,3.0828,3.0792,3.0789,3.0787,0,0,0,0,0,0,0,0,0,0,0,0,0,3.0902,3.09,3.0813,3.0813,3.0812,3.0783,3.0782,3.0782,3.0823,3.0825,3.0827,3.0828,3.0792,3.079,3.0787,0,0,0,0,0,0,0,0,0,0,0,0,0,3.0866,3.0899,3.0813,3.0829,3.0831,3.0783,3.0782,3.0782,3.0823,3.0825,3.0827,3.0829,3.0793,3.079,3.0786,3.072,0,0,3.0776,3.0774,0,0,0,0,0,0,0,0,3.0868,3.0863,3.0827,3.0828,3.0829,3.0809,3.0801,3.0761,3.0822,3.0825,3.0828,3.083,3.0795,3.0792,3.0781,3.0718,3.0717,3.0775,3.0773,3.0772,3.0771,0,0,0,0,0,0,0,3.0871,3.0865,3.0801,3.0827,3.0828,3.0837,3.0834,3.0793,3.0798,3.0825,3.0828,3.0824,3.0796,3.0784,3.0781,3.0716,3.0775,3.0772,3.077,3.0769,3.0598,3.0596,0,0,0,0,0,0,3.0872,3.0866,3.0802,3.08,3.0855,3.0833,3.0831,3.0813,3.0799,3.0799,3.0823,3.0827,3.0789,3.0785,3.0779,3.0701,3.0772,3.0768,3.0766,3.06,3.0597,3.0595,0,0,0,0,0,0,3.0874,3.0866,3.0803,3.0834,3.0827,3.0829,3.081,3.0812,3.08,3.0797,3.0797,3.081,3.0791,3.0784,3.0735,3.07,3.0767,3.0764,3.0603,3.0599,3.0596,3.0544,0,0,0,0,0,0,3.0876,3.0866,3.0842,3.0833,3.0825,3.076,3.0808,3.0809,3.0794,3.0799,3.0785,3.0785,3.0792,3.074,3.0731,3.0697,3.0761,3.0606,3.0602,3.0597,3.0548,3.0539,3.053,0,0,0,0,0,3.0879,3.0827,3.0841,3.0832,3.0795,3.0758,3.0753,3.0765,3.0791,3.0766,3.0764,3.0785,3.0706,3.0735,3.0725,3.0689,3.0608,3.0603,3.0598,3.0552,3.054,3.053,0,0,0,0,0,0,3.0829,3.0826,3.0841,3.0785,3.0772,3.0765,3.0734,3.0751,3.0729,3.0734,3.0748,3.0744,3.0691,3.0685,3.0718,3.0624,3.0661,3.0654,3.063,3.0619,3.061,3.0612,3.0758,0,0,0,0,0,3.0812,3.0784,3.0782,3.0733,3.0726,3.0731,3.0715,3.0725,3.0712,3.0706,3.07,3.0685,3.0656,3.0637,3.0611,3.0548,3.0545,3.0518,3.0509,3.0502,3.0495,3.0462,3.045,3.0577,3.0577,3.0577,0,0,3.0776,3.0771,3.0752,3.0723,3.0714,3.0683,3.0726,3.0691,3.0669,3.07,3.0654,3.0649,3.0632,3.0576,3.0551,3.0569,3.0459,3.0495,3.0489,3.0486,3.0455,3.0443,3.0432,3.0573,3.0574,3.0574,0,0,3.0694,3.0687,3.0646,3.0637,3.0623,3.0627,3.0617,3.0608,3.0607,3.0561,3.0584,3.0557,3.0508,3.0495,3.0482,3.0397,3.0415,3.0388,3.034,3.0308,3.0298,3.0289,3.0258,3.0247,3.0381,3.0381,3.0381,0,3.065,3.0606,3.0622,3.0586,3.0573,3.0602,3.0559,3.0549,3.0527,3.0516,3.0538,3.0478,3.0468,3.041,3.0389,3.0378,3.0366,3.0389,3.0298,3.0289,3.0281,3.0253,3.0241,3.0378,3.0378,3.0379,3.0379,0,3.0553,3.0522,3.049,3.047,3.0453,3.0414,3.0423,3.0403,3.0415,3.0416,3.0369,3.0359,3.0332,3.0319,3.0329,3.0262,3.0274,3.0296,3.0334,3.0266,3.0239,3.0228,3.0373,3.0375,3.0375,3.0376,0,0,3.0437,3.0428,3.0416,3.0408,3.0396,3.0372,3.0334,3.0309,3.0292,3.0276,3.0244,3.0203,3.0224,3.021,3.0219,3.019,3.0124,3.0216,3.0216,3.0199,3.0049,3.0032,3.0019,3.0136,3.0134,3.0132,3.0051,0,3.0356,3.0293,3.0306,3.0243,3.0215,3.0243,3.021,3.0198,3.0199,3.0174,3.0174,3.0145,3.0175,3.0166,3.0139,3.0137,3.0094,3.0144,3.0106,3.0104,3.0109,3.0005,2.9987,2.991,3.004,3.0038,3.0037,0,3.0252,3.0235,3.017,3.0164,3.0152,3.0122,3.0101,3.0078,3.0065,3.0067,3.0052,3.0067,3.0028,3.0067,3.0014,3.0047,3.0033,3.0029,3.0027,3.0023,3.0066,2.9999,2.9886,2.9875,3.0021,3.0022,3.0023,0,3.0175,3.0135,3.0091,3.0083,3.0075,3.0053,3.0048,3.0038,3.0022,3.0003,2.9993,2.9969,2.9956,2.9937,2.9944,2.9972,2.989,2.9929,2.989,2.9889,2.9871,2.9872,2.9754,2.9861,2.9861,2.9862,2.9862,0,3.0083,3.0042,3.0057,3.003,2.9985,3.0,2.9955,2.9953,2.9943,2.9916,2.9938,2.9911,2.9923,2.9897,2.9902,2.9858,2.9851,2.9851,2.9853,2.9849,2.9849,2.984,2.9845,2.9859,2.9859,2.986,2.986,0,2.9989,2.9997,2.9952,2.9948,2.9946,2.9913,2.9909,2.9883,2.9886,2.9851,2.9843,2.9847,2.9817,2.9823,2.979,2.9794,2.9738,2.9746,2.9743,2.9745,2.9706,2.9709,2.9578,2.9561,2.9679,2.9678,2.9677,0,2.9929,2.9899,2.9893,2.9877,2.9871,2.9844,2.9829,2.9843,2.9826,2.981,2.9786,2.9759,2.9738,2.9689,2.9688,2.9663,2.9671,2.9627,2.9667,2.9665,2.967,2.9672,2.9669,2.9618,2.9617,2.9616,2.9615,0,2.9823,2.9829,2.9807,2.9787,2.9769,2.9754,2.974,2.9725,2.9738,2.9718,2.9689,2.9673,2.964,2.9613,2.959,2.9583,2.9601,2.9602,2.9592,2.9588,2.9587,2.9587,2.9721,2.9605,2.9606,2.9607,2.9607,2.9608,2.9744,2.9719,2.9711,2.9686,2.9678,2.9665,2.9641,2.9642,2.9619,2.9594,2.9603,2.957,2.9559,2.953,2.9521,2.9495,2.9511,2.9496,2.9492,2.9488,2.9484,2.9592,2.949,2.9491,2.9491,2.9491,2.9491,0,2.9639,2.9636,2.9613,2.9595,2.9575,2.9596,2.9582,2.9563,2.9535,2.9523,2.9503,2.947,2.9444,2.9441,2.9416,2.9396,2.9403,2.9388,2.939,2.9388,2.947,2.9482,2.9383,2.9383,2.9383,2.9383,2.9383,2.9383,2.9582,2.9541,2.9546,2.95,2.9497,2.9466,2.9457,2.9445,2.9436,2.9398,2.9378,2.9377,2.9369,2.9344,2.932,2.932,2.931,2.9292,2.9295,2.9372,2.9382,2.9393,2.9404,2.929,2.929,2.9216,2.9215,2.9214]}]]